Starlink 33645

operational
NORAD ID: 63412 Int'l Des: 2025-065 Owner: SPXS Country: US Constellation: starlink
LEOCIRCULAR

About Starlink 33645

Description loading...

Live Position

Loading 3D Globe...

Upcoming Passes

Altitude History

Altitude vs Time

uPlot chart will show altitude changes over time

Two-Line Element Set

1 63412U 25065P 26047.84256038 .00027601 00000-0 10067-2 0 9991
2 63412 42.9976 228.0237 0001553 274.4634 85.6040 15.27646065 49618
Epoch: Feb 16, 2026 • Age: 28 hours

Current Status

Altitude 483.0 km
Velocity 7.63 km/s
Sub-Earth Point 25.00°N, 93.68°E
Launch Date Mar 31, 2025
Age 0.8 years
Type internet

Technical Details

Classification Payload
Mass 575.00 kg
Dry Mass 530.00 kg
Total Mass 575.00 kg
Length 0.30 m
Diameter 4.10 m
Span 29.00 m
Shape Box + pan
Manufacturer SPXS
Bus Type Starlink V2MO
Phase Status In Orbit
Owner/State SPXS/US

Large Constellations

Loading constellations...